User: anonymous   Login
Location: Keeble Observatory
(37.7625°N, 77.4755°W)
Time: 05:41:24
(UTC-05:00)
Language:

Cosmos 1484 Rocket - Orbit

View from above orbital plane
View from above orbital plane
View from above satellite
View from above satellite

Ground track
Ground track

The orbit data is extracted from the following two-line orbital elements,

1 14208U 83075B   17015.18919129  .00000418  00000-0  28985-4 0  9991
2 14208  97.3452  32.0174 0038097 300.2953  59.4509 15.10234429824415
Epoch (UTC): 15 January 2017 04:32:26
Eccentricity: 0.0038097
inclination: 97.3452°
perigee height: 509 km
apogee height: 562 km
right ascension of ascending node: 32.0174°
argument of perigee: 300.2953°
revolutions per day: 15.10234429
mean anomaly at epoch: 59.4509°
orbit number at epoch: 82441

The dashed part of the orbit path shows where the satellite is in the earth's shadow,  

DLR